Ocean Highway — H3IE — position and weather

sailwx.info

Track history (hours):
 
Tides and Currents Weather Stations Pressure Air Temp Water Temp Dewpoint Dewpoint Depression Visibility Wind Speed Wind Dir Waves Ship Positions

Ocean Highway

Last reported at 2014-Jul-29 02:31 UTC. Time now 2014-Jul-29 23:02 UTC.
Position N 38°46' W 009°52'.

Length 179.1 m; beam 32.2 m.

Type: Cargo ship. MMSI: 353951000.

Date/timePositionNaut miles runAvg speedWind from/ knotsBaromVisibWave heightAir tempDewpointWater temp
2014-Jul-29 02:31N 38°46' W 009°52'1616.3
2014-Jul-29 01:31N 38°30' W 009°48'1916.5
2014-Jul-29 00:23N 38°12' W 009°42'1316.0
2014-Jul-28 23:33N 37°59' W 009°38'1615.7
2014-Jul-28 22:33N 37°43' W 009°34'1616.0
2014-Jul-28 21:33N 37°28' W 009°29'1716.6
2014-Jul-28 20:33N 37°12' W 009°24'1616.4
2014-Jul-28 19:33N 36°56' W 009°20'1616.3
2014-Jul-28 18:33N 36°44' W 009°06'1716.8
2014-Jul-28 17:33N 36°39' W 008°46'1616.3
2014-Jul-28 16:33N 36°33' W 008°27'1816.6
2014-Jul-28 15:30N 36°28' W 008°06'1616.8
2014-Jul-28 14:33N 36°23' W 007°47'1716.8
2014-Jul-28 13:33N 36°18' W 007°28'31715.8
2014-Jul-27 17:31N 36°34' W 000°54'1816.5
2014-Jul-27 16:25N 36°39' W 000°33'3216.9
2014-Jul-27 14:33N 36°47' E 000°05'12216.9
2014-Jul-27 07:20N 37°18' E 002°33'3016.9
2014-Jul-27 05:32N 37°26' E 003°09'1716.9
2014-Jul-27 04:33N 37°31' E 003°30'1716.8
2014-Jul-27 03:33N 37°35' E 003°50'1817.0
2014-Jul-27 02:32N 37°37' E 004°12'2217.3
2014-Jul-27 01:14N 37°37' E 004°40'1217.2
2014-Jul-27 00:31N 37°37' E 004°56'1617.0
2014-Jul-26 23:33N 37°37' E 005°17'1717.1
2014-Jul-26 22:33N 37°37' E 005°38'2517.9
2014-Jul-26 21:08N 37°38' E 006°10'8417.4
2014-Jul-26 16:21N 37°37' E 007°56'1316.9
2014-Jul-26 15:33N 37°37' E 008°12'1817.4
2014-Jul-26 14:32N 37°37' E 008°35'3316.6
2014-Jul-26 12:33N 37°38' E 009°16'7715.4
2014-Jul-26 07:32N 37°35' E 010°54'7217.2
2014-Jul-26 03:19N 37°01' E 012°14'1316.6
2014-Jul-26 02:33N 36°57' E 012°29'1716.8
2014-Jul-26 01:34N 36°51' E 012°49'1616.4
2014-Jul-26 00:34N 36°45' E 013°08'1716.9
2014-Jul-25 23:33N 36°39' E 013°28'1717.1
2014-Jul-25 22:34N 36°34' E 013°48'1716.8
2014-Jul-25 21:33N 36°30' E 014°08'1717.0
2014-Jul-25 20:34N 36°28' E 014°29'1716.9
2014-Jul-25 19:33N 36°28' E 014°50'1916.7
2014-Jul-25 18:25N 36°26' E 015°14'40116.1
2014-Jul-24 17:26N 36°53' E 023°33'3216.7
2014-Jul-24 15:30N 37°24' E 023°40'1616.4
2014-Jul-24 14:32N 37°40' E 023°42'1515.5
2014-Jul-24 13:34N 37°54' E 023°37'3 3.0
2014-Jul-24 12:31N 37°58' E 023°36'0 0.0
2014-Jul-24 10:13N 37°58' E 023°36'0 0.0
2014-Jul-24 09:31N 37°58' E 023°36'0 0.0
2014-Jul-24 08:31N 37°58' E 023°36'0 0.0
2014-Jul-24 07:31N 37°58' E 023°36'0 0.0
2014-Jul-24 06:31N 37°58' E 023°36'2 2.2
2014-Jul-24 05:33N 37°55' E 023°36'1 0.9
2014-Jul-24 04:33N 37°55' E 023°37'1 1.3
2014-Jul-24 03:33N 37°53' E 023°37'1414.5
2014-Jul-24 02:33N 37°41' E 023°46'1615.7
2014-Jul-24 01:32N 37°25' E 023°52'1515.7
2014-Jul-24 00:33N 37°11' E 023°59'1615.8
2014-Jul-23 23:33N 36°56' E 024°05'1815.7
2014-Jul-23 22:26N 36°39' E 024°12'1314.8
2014-Jul-23 21:33N 36°30' E 024°23'1515.0
2014-Jul-23 20:33N 36°22' E 024°39'1514.9
2014-Jul-23 19:33N 36°14' E 024°55'1514.9
2014-Jul-23 18:33N 36°05' E 025°10'1515.3
2014-Jul-23 17:33N 35°57' E 025°26'1515.5
2014-Jul-23 16:33N 35°48' E 025°42'1515.3
2014-Jul-23 15:33N 35°40' E 025°57'16415.9
2014-Jul-23 05:14N 34°00' E 028°36'1816.0
2014-Jul-23 04:05N 33°49' E 028°53'1515.7
2014-Jul-23 03:06N 33°39' E 029°08'915.6
2014-Jul-23 02:32N 33°34' E 029°16'1615.5
2014-Jul-23 01:32N 33°24' E 029°30'1515.7
2014-Jul-23 00:33N 33°15' E 029°45'1615.6
2014-Jul-22 23:33N 33°05' E 029°59'1616.0
2014-Jul-22 22:33N 32°55' E 030°14'1616.0
2014-Jul-22 21:33N 32°45' E 030°29'1616.0
2014-Jul-22 20:33N 32°35' E 030°44'1615.9
2014-Jul-22 19:33N 32°25' E 030°59'1616.0
2014-Jul-22 18:33N 32°16' E 031°14'1616.0
2014-Jul-22 17:33N 32°06' E 031°29'1615.8
2014-Jul-22 16:33N 31°56' E 031°43'1515.4
2014-Jul-22 15:33N 31°46' E 031°57'1515.2
2014-Jul-22 14:33N 31°36' E 032°10'1614.8
2014-Jul-22 13:27N 31°24' E 032°23'  
Track history (hours):
 
Tides and Currents Weather Stations Pressure Air Temp Water Temp Dewpoint Dewpoint Depression Visibility Wind Speed Wind Dir Waves Ship Positions

Ocean Highway

Last reported at 2014-Jul-29 02:31 UTC. Time now 2014-Jul-29 23:02 UTC.
Position N 38°46' W 009°52'.

Length 179.1 m; beam 32.2 m.

Type: Cargo ship. MMSI: 353951000.

Date/timePositionNaut miles runAvg speedWind from/ knotsBaromVisibWave heightAir tempDewpointWater temp
2014-Jul-29 02:31N 38°46' W 009°52'1616.3
2014-Jul-29 01:31N 38°30' W 009°48'1916.5
2014-Jul-29 00:23N 38°12' W 009°42'1316.0
2014-Jul-28 23:33N 37°59' W 009°38'1615.7
2014-Jul-28 22:33N 37°43' W 009°34'1616.0
2014-Jul-28 21:33N 37°28' W 009°29'1716.6
2014-Jul-28 20:33N 37°12' W 009°24'1616.4
2014-Jul-28 19:33N 36°56' W 009°20'1616.3
2014-Jul-28 18:33N 36°44' W 009°06'1716.8
2014-Jul-28 17:33N 36°39' W 008°46'1616.3
2014-Jul-28 16:33N 36°33' W 008°27'1816.6
2014-Jul-28 15:30N 36°28' W 008°06'1616.8
2014-Jul-28 14:33N 36°23' W 007°47'1716.8
2014-Jul-28 13:33N 36°18' W 007°28'31715.8
2014-Jul-27 17:31N 36°34' W 000°54'1816.5
2014-Jul-27 16:25N 36°39' W 000°33'3216.9
2014-Jul-27 14:33N 36°47' E 000°05'12216.9
2014-Jul-27 07:20N 37°18' E 002°33'3016.9
2014-Jul-27 05:32N 37°26' E 003°09'1716.9
2014-Jul-27 04:33N 37°31' E 003°30'1716.8
2014-Jul-27 03:33N 37°35' E 003°50'1817.0
2014-Jul-27 02:32N 37°37' E 004°12'2217.3
2014-Jul-27 01:14N 37°37' E 004°40'1217.2
2014-Jul-27 00:31N 37°37' E 004°56'1617.0
2014-Jul-26 23:33N 37°37' E 005°17'1717.1
2014-Jul-26 22:33N 37°37' E 005°38'2517.9
2014-Jul-26 21:08N 37°38' E 006°10'8417.4
2014-Jul-26 16:21N 37°37' E 007°56'1316.9
2014-Jul-26 15:33N 37°37' E 008°12'1817.4
2014-Jul-26 14:32N 37°37' E 008°35'3316.6
2014-Jul-26 12:33N 37°38' E 009°16'7715.4
2014-Jul-26 07:32N 37°35' E 010°54'7217.2
2014-Jul-26 03:19N 37°01' E 012°14'1316.6
2014-Jul-26 02:33N 36°57' E 012°29'1716.8
2014-Jul-26 01:34N 36°51' E 012°49'1616.4
2014-Jul-26 00:34N 36°45' E 013°08'1716.9
2014-Jul-25 23:33N 36°39' E 013°28'1717.1
2014-Jul-25 22:34N 36°34' E 013°48'1716.8
2014-Jul-25 21:33N 36°30' E 014°08'1717.0
2014-Jul-25 20:34N 36°28' E 014°29'1716.9
2014-Jul-25 19:33N 36°28' E 014°50'1916.7
2014-Jul-25 18:25N 36°26' E 015°14'40116.1
2014-Jul-24 17:26N 36°53' E 023°33'3216.7
2014-Jul-24 15:30N 37°24' E 023°40'1616.4
2014-Jul-24 14:32N 37°40' E 023°42'1515.5
2014-Jul-24 13:34N 37°54' E 023°37'3 3.0
2014-Jul-24 12:31N 37°58' E 023°36'0 0.0
2014-Jul-24 10:13N 37°58' E 023°36'0 0.0
2014-Jul-24 09:31N 37°58' E 023°36'0 0.0
2014-Jul-24 08:31N 37°58' E 023°36'0 0.0
2014-Jul-24 07:31N 37°58' E 023°36'0 0.0
2014-Jul-24 06:31N 37°58' E 023°36'2 2.2
2014-Jul-24 05:33N 37°55' E 023°36'1 0.9
2014-Jul-24 04:33N 37°55' E 023°37'1 1.3
2014-Jul-24 03:33N 37°53' E 023°37'1414.5
2014-Jul-24 02:33N 37°41' E 023°46'1615.7
2014-Jul-24 01:32N 37°25' E 023°52'1515.7
2014-Jul-24 00:33N 37°11' E 023°59'1615.8
2014-Jul-23 23:33N 36°56' E 024°05'1815.7
2014-Jul-23 22:26N 36°39' E 024°12'1314.8
2014-Jul-23 21:33N 36°30' E 024°23'1515.0
2014-Jul-23 20:33N 36°22' E 024°39'1514.9
2014-Jul-23 19:33N 36°14' E 024°55'1514.9
2014-Jul-23 18:33N 36°05' E 025°10'1515.3
2014-Jul-23 17:33N 35°57' E 025°26'1515.5
2014-Jul-23 16:33N 35°48' E 025°42'1515.3
2014-Jul-23 15:33N 35°40' E 025°57'16415.9
2014-Jul-23 05:14N 34°00' E 028°36'1816.0
2014-Jul-23 04:05N 33°49' E 028°53'1515.7
2014-Jul-23 03:06N 33°39' E 029°08'915.6
2014-Jul-23 02:32N 33°34' E 029°16'1615.5
2014-Jul-23 01:32N 33°24' E 029°30'1515.7
2014-Jul-23 00:33N 33°15' E 029°45'1615.6
2014-Jul-22 23:33N 33°05' E 029°59'1616.0
2014-Jul-22 22:33N 32°55' E 030°14'1616.0
2014-Jul-22 21:33N 32°45' E 030°29'1616.0
2014-Jul-22 20:33N 32°35' E 030°44'1615.9
2014-Jul-22 19:33N 32°25' E 030°59'1616.0
2014-Jul-22 18:33N 32°16' E 031°14'1616.0
2014-Jul-22 17:33N 32°06' E 031°29'1615.8
2014-Jul-22 16:33N 31°56' E 031°43'1515.4
2014-Jul-22 15:33N 31°46' E 031°57'1515.2
2014-Jul-22 14:33N 31°36' E 032°10'1614.8
2014-Jul-22 13:27N 31°24' E 032°23'  

Dump ship's entire track history